START_TIME,STEP,MOV.,EG07,t_acc.,EG08,t_acc.,EG09,t_acc.,EB05,t_acc.,EBP05,t_acc.
1979-07-14 03:00:23.130 ,1,0,9.,1.2,0.,1.2,0.,1.2,,0.0,,0.0
1979-07-14 03:00:24.330 ,1,0,13.,1.2,0.,1.2,0.,1.2,,0.0,,0.0
1979-07-14 03:00:25.530 ,1,0,17.,1.2,1.,1.2,0.,1.2,,0.0,,0.0
1979-07-14 03:00:26.730 ,1,0,9.,1.2,0.,1.2,0.,1.2,,0.0,,0.0
1979-07-14 03:00:27.930 ,1,0,11.,1.2,0.,1.2,0.,1.2,,0.0,,0.0
1979-07-14 03:00:29.130 ,1,0,13.,1.2,0.,1.2,0.,1.2,,0.0,,0.0
1979-07-14 03:00:30.330 ,1,0,19.,1.2,1.,1.2,0.,1.2,,0.0,,0.0
1979-07-14 03:00:31.530 ,1,0,8.,1.2,0.,1.2,0.,1.2,,0.0,,0.0
1979-07-14 03:00:32.730 ,1,0,15.,1.2,0.,1.2,0.,1.2,,0.0,,0.0
1979-07-14 03:00:33.930 ,1,0,16.,1.2,0.,1.2,0.,1.2,,0.0,,0.0
1979-07-14 03:00:35.130 ,1,0,14.,1.2,0.,1.2,0.,1.2,,0.0,,0.0
1979-07-14 03:00:36.330 ,1,0,19.,1.2,0.,1.2,0.,1.2,,0.0,,0.0
1979-07-14 03:00:37.530 ,1,0,15.,1.2,0.,1.2,0.,1.2,,0.0,,0.0
1979-07-14 03:00:38.730 ,1,0,20.,1.2,0.,1.2,0.,1.2,,0.0,,0.0
1979-07-14 03:00:39.930 ,1,0,13.,1.2,0.,1.2,0.,1.2,,0.0,,0.0
1979-07-14 03:00:41.130 ,1,0,13.,1.2,0.,1.2,0.,1.2,,0.0,,0.0
1979-07-14 03:00:42.330 ,1,0,12.,1.2,2.,1.2,0.,1.2,,0.0,,0.0
1979-07-14 03:00:43.530 ,1,0,7.,1.2,0.,1.2,0.,1.2,,0.0,,0.0
1979-07-14 03:00:44.730 ,1,0,14.,1.2,2.,1.2,0.,1.2,,0.0,,0.0
1979-07-14 03:00:45.930 ,1,0,16.,1.2,2.,1.2,0.,1.2,,0.0,,0.0
1979-07-14 03:00:47.130 ,2,0,10.,1.2,1.,1.2,0.,1.2,,0.0,,0.0
1979-07-14 03:00:48.330 ,2,0,14.,1.2,1.,1.2,0.,1.2,,0.0,,0.0
1979-07-14 03:00:49.530 ,2,0,10.,1.2,0.,1.2,0.,1.2,,0.0,,0.0
1979-07-14 03:00:50.730 ,2,0,15.,1.2,0.,1.2,0.,1.2,,0.0,,0.0
1979-07-14 03:00:51.930 ,2,0,12.,1.2,0.,1.2,0.,1.2,,0.0,,0.0
1979-07-14 03:00:53.130 ,2,0,8.,1.2,0.,1.2,0.,1.2,,0.0,,0.0
1979-07-14 03:00:54.330 ,2,0,11.,1.2,0.,1.2,0.,1.2,,0.0,,0.0
1979-07-14 03:00:55.530 ,2,0,13.,1.2,0.,1.2,0.,1.2,,0.0,,0.0
1979-07-14 03:00:56.730 ,2,0,14.,1.2,0.,1.2,0.,1.2,,0.0,,0.0
1979-07-14 03:00:57.930 ,2,0,9.,1.2,0.,1.2,0.,1.2,,0.0,,0.0
1979-07-14 03:00:59.130 ,2,0,23.,1.2,3.,1.2,0.,1.2,,0.0,,0.0
1979-07-14 03:01:00.330 ,2,0,9.,1.2,1.,1.2,0.,1.2,,0.0,,0.0
1979-07-14 03:01:01.530 ,2,0,12.,1.2,0.,1.2,0.,1.2,,0.0,,0.0
1979-07-14 03:01:02.730 ,2,0,5.,1.2,0.,1.2,0.,1.2,,0.0,,0.0
1979-07-14 03:01:03.930 ,2,0,15.,1.2,0.,1.2,0.,1.2,,0.0,,0.0
1979-07-14 03:01:05.130 ,2,0,26.,1.2,0.,1.2,0.,1.2,,0.0,,0.0
1979-07-14 03:01:06.330 ,2,0,11.,1.2,0.,1.2,0.,1.2,,0.0,,0.0
1979-07-14 03:01:07.530 ,2,0,18.,1.2,0.,1.2,0.,1.2,,0.0,,0.0
1979-07-14 03:01:08.730 ,2,0,19.,1.2,1.,1.2,0.,1.2,,0.0,,0.0
1979-07-14 03:01:09.930 ,2,0,21.,1.2,1.,1.2,1.,1.2,,0.0,,0.0
1979-07-14 03:01:11.130 ,2,0,23.,1.2,0.,1.2,0.,1.2,,0.0,,0.0
1979-07-14 03:01:12.330 ,2,0,10.,1.2,0.,1.2,0.,1.2,,0.0,,0.0
1979-07-14 03:01:13.530 ,2,0,16.,1.2,0.,1.2,0.,1.2,,0.0,,0.0
1979-07-14 03:01:14.730 ,2,0,18.,1.2,0.,1.2,0.,1.2,,0.0,,0.0
1979-07-14 03:01:15.930 ,2,0,11.,1.2,1.,1.2,0.,1.2,,0.0,,0.0
1979-07-14 03:01:17.130 ,2,0,12.,1.2,2.,1.2,0.,1.2,,0.0,,0.0
1979-07-14 03:01:18.330 ,2,0,21.,1.2,2.,1.2,0.,1.2,,0.0,,0.0
1979-07-14 03:01:19.530 ,2,0,9.,1.2,0.,1.2,0.,1.2,,0.0,,0.0
1979-07-14 03:01:20.730 ,2,0,12.,1.2,0.,1.2,0.,1.2,,0.0,,0.0
1979-07-14 03:01:21.930 ,2,0,14.,1.2,1.,1.2,0.,1.2,,0.0,,0.0
1979-07-14 03:01:23.130 ,2,0,16.,1.2,1.,1.2,0.,1.2,,0.0,,0.0
1979-07-14 03:01:24.330 ,2,0,13.,1.2,1.,1.2,0.,1.2,,0.0,,0.0
1979-07-14 03:01:25.530 ,2,0,12.,1.2,0.,1.2,0.,1.2,,0.0,,0.0
1979-07-14 03:01:26.730 ,2,0,12.,1.2,1.,1.2,0.,1.2,,0.0,,0.0
1979-07-14 03:01:27.930 ,2,0,17.,1.2,2.,1.2,0.,1.2,,0.0,,0.0
1979-07-14 03:01:29.130 ,2,0,18.,1.2,2.,1.2,0.,1.2,,0.0,,0.0
1979-07-14 03:01:30.330 ,2,0,12.,1.2,0.,1.2,0.,1.2,,0.0,,0.0
1979-07-14 03:01:31.530 ,2,0,18.,1.2,0.,1.2,0.,1.2,,0.0,,0.0
1979-07-14 03:01:32.730 ,2,0,17.,1.2,0.,1.2,0.,1.2,,0.0,,0.0
1979-07-14 03:01:33.930 ,2,0,19.,1.2,0.,1.2,0.,1.2,,0.0,,0.0
1979-07-14 03:01:35.130 ,3,0,15.,1.2,0.,1.2,0.,1.2,,0.0,,0.0
1979-07-14 03:01:36.330 ,3,0,17.,1.2,0.,1.2,0.,1.2,,0.0,,0.0
1979-07-14 03:01:37.530 ,3,0,9.,1.2,0.,1.2,0.,1.2,,0.0,,0.0
1979-07-14 03:01:38.730 ,3,0,13.,1.2,1.,1.2,0.,1.2,,0.0,,0.0
1979-07-14 03:01:39.930 ,3,0,15.,1.2,0.,1.2,0.,1.2,,0.0,,0.0
1979-07-14 03:01:41.130 ,3,0,11.,1.2,0.,1.2,0.,1.2,,0.0,,0.0
1979-07-14 03:01:42.330 ,3,0,12.,1.2,0.,1.2,0.,1.2,,0.0,,0.0
1979-07-14 03:01:43.530 ,3,0,22.,1.2,1.,1.2,0.,1.2,,0.0,,0.0
1979-07-14 03:01:44.730 ,3,0,15.,1.2,0.,1.2,0.,1.2,,0.0,,0.0
1979-07-14 03:01:45.930 ,3,0,17.,1.2,0.,1.2,0.,1.2,,0.0,,0.0
1979-07-14 03:01:47.130 ,3,0,16.,1.2,0.,1.2,0.,1.2,,0.0,,0.0
1979-07-14 03:01:48.330 ,3,0,18.,1.2,0.,1.2,0.,1.2,,0.0,,0.0
1979-07-14 03:01:49.530 ,3,0,19.,1.2,0.,1.2,0.,1.2,,0.0,,0.0
1979-07-14 03:01:50.730 ,3,0,23.,1.2,0.,1.2,0.,1.2,,0.0,,0.0
1979-07-14 03:01:51.930 ,3,0,12.,1.2,0.,1.2,0.,1.2,,0.0,,0.0
1979-07-14 03:01:53.130 ,3,0,18.,1.2,2.,1.2,0.,1.2,,0.0,,0.0
1979-07-14 03:01:54.330 ,3,0,14.,1.2,0.,1.2,0.,1.2,,0.0,,0.0
1979-07-14 03:01:55.530 ,3,0,12.,1.2,1.,1.2,0.,1.2,,0.0,,0.0
1979-07-14 03:01:56.730 ,3,0,18.,1.2,0.,1.2,0.,1.2,,0.0,,0.0
1979-07-14 03:01:57.930 ,3,0,13.,1.2,0.,1.2,0.,1.2,,0.0,,0.0
1979-07-14 03:01:59.130 ,3,0,11.,1.2,1.,1.2,1.,1.2,,0.0,,0.0
1979-07-14 03:02:00.330 ,3,0,13.,1.2,1.,1.2,0.,1.2,,0.0,,0.0
1979-07-14 03:02:01.530 ,3,0,12.,1.2,0.,1.2,0.,1.2,,0.0,,0.0
1979-07-14 03:02:02.730 ,3,0,12.,1.2,1.,1.2,0.,1.2,,0.0,,0.0
1979-07-14 03:02:03.930 ,3,0,11.,1.2,0.,1.2,0.,1.2,,0.0,,0.0
1979-07-14 03:02:05.130 ,3,0,14.,1.2,0.,1.2,0.,1.2,,0.0,,0.0
1979-07-14 03:02:06.330 ,3,0,20.,1.2,0.,1.2,0.,1.2,,0.0,,0.0
1979-07-14 03:02:07.530 ,3,0,16.,1.2,1.,1.2,0.,1.2,,0.0,,0.0
1979-07-14 03:02:08.730 ,3,0,13.,1.2,2.,1.2,1.,1.2,,0.0,,0.0
1979-07-14 03:02:09.930 ,3,0,18.,1.2,2.,1.2,0.,1.2,,0.0,,0.0
1979-07-14 03:02:11.130 ,3,0,15.,1.2,1.,1.2,0.,1.2,,0.0,,0.0
1979-07-14 03:02:12.330 ,3,0,14.,1.2,0.,1.2,0.,1.2,,0.0,,0.0
1979-07-14 03:02:13.530 ,3,0,14.,1.2,0.,1.2,0.,1.2,,0.0,,0.0
1979-07-14 03:02:14.730 ,3,0,16.,1.2,0.,1.2,0.,1.2,,0.0,,0.0
1979-07-14 03:02:15.930 ,3,0,17.,1.2,1.,1.2,0.,1.2,,0.0,,0.0
1979-07-14 03:02:17.130 ,3,0,11.,1.2,0.,1.2,0.,1.2,,0.0,,0.0
1979-07-14 03:02:18.330 ,3,0,12.,1.2,0.,1.2,0.,1.2,,0.0,,0.0
1979-07-14 03:02:19.530 ,3,0,9.,1.2,1.,1.2,0.,1.2,,0.0,,0.0
1979-07-14 03:02:20.730 ,3,0,13.,1.2,0.,1.2,0.,1.2,,0.0,,0.0
1979-07-14 03:02:21.930 ,3,0,12.,1.2,0.,1.2,0.,1.2,,0.0,,0.0
1979-07-14 03:02:23.130 ,4,0,18.,1.2,1.,1.2,0.,1.2,,0.0,,0.0
1979-07-14 03:02:24.330 ,4,0,13.,1.2,0.,1.2,0.,1.2,,0.0,,0.0
1979-07-14 03:02:25.530 ,4,0,17.,1.2,0.,1.2,0.,1.2,,0.0,,0.0
1979-07-14 03:02:26.730 ,4,0,11.,1.2,0.,1.2,0.,1.2,,0.0,,0.0
1979-07-14 03:02:27.930 ,4,0,17.,1.2,1.,1.2,0.,1.2,,0.0,,0.0
1979-07-14 03:02:29.130 ,4,0,15.,1.2,0.,1.2,0.,1.2,,0.0,,0.0
1979-07-14 03:02:30.330 ,4,0,11.,1.2,0.,1.2,0.,1.2,,0.0,,0.0
1979-07-14 03:02:31.530 ,4,0,16.,1.2,0.,1.2,0.,1.2,,0.0,,0.0
1979-07-14 03:02:32.730 ,4,0,17.,1.2,0.,1.2,0.,1.2,,0.0,,0.0
1979-07-14 03:02:33.930 ,4,0,9.,1.2,0.,1.2,0.,1.2,,0.0,,0.0
1979-07-14 03:02:35.130 ,4,0,12.,1.2,0.,1.2,0.,1.2,,0.0,,0.0
1979-07-14 03:02:36.330 ,4,0,20.,1.2,0.,1.2,0.,1.2,,0.0,,0.0
1979-07-14 03:02:37.530 ,4,0,17.,1.2,0.,1.2,0.,1.2,,0.0,,0.0
1979-07-14 03:02:38.730 ,4,0,11.,1.2,0.,1.2,0.,1.2,,0.0,,0.0
1979-07-14 03:02:39.930 ,4,0,11.,1.2,1.,1.2,0.,1.2,,0.0,,0.0
1979-07-14 03:02:41.130 ,4,0,10.,1.2,0.,1.2,0.,1.2,,0.0,,0.0
1979-07-14 03:02:42.330 ,4,0,13.,1.2,2.,1.2,0.,1.2,,0.0,,0.0
1979-07-14 03:02:43.530 ,4,0,11.,1.2,0.,1.2,0.,1.2,,0.0,,0.0
1979-07-14 03:02:44.730 ,4,0,11.,1.2,1.,1.2,0.,1.2,,0.0,,0.0
1979-07-14 03:02:45.930 ,4,0,21.,1.2,1.,1.2,0.,1.2,,0.0,,0.0
1979-07-14 03:02:47.130 ,4,0,19.,1.2,0.,1.2,0.,1.2,,0.0,,0.0
1979-07-14 03:02:48.330 ,4,0,11.,1.2,0.,1.2,0.,1.2,,0.0,,0.0
1979-07-14 03:02:49.530 ,4,0,12.,1.2,0.,1.2,0.,1.2,,0.0,,0.0
1979-07-14 03:02:50.730 ,4,0,22.,1.2,0.,1.2,0.,1.2,,0.0,,0.0
1979-07-14 03:02:51.930 ,4,0,20.,1.2,0.,1.2,0.,1.2,,0.0,,0.0
1979-07-14 03:02:53.130 ,4,0,20.,1.2,0.,1.2,0.,1.2,,0.0,,0.0
1979-07-14 03:02:54.330 ,4,0,18.,1.2,1.,1.2,0.,1.2,,0.0,,0.0
1979-07-14 03:02:55.530 ,4,0,12.,1.2,1.,1.2,0.,1.2,,0.0,,0.0
1979-07-14 03:02:56.730 ,4,0,25.,1.2,0.,1.2,0.,1.2,,0.0,,0.0
1979-07-14 03:02:57.930 ,4,0,17.,1.2,0.,1.2,0.,1.2,,0.0,,0.0
1979-07-14 03:02:59.130 ,4,0,19.,1.2,0.,1.2,0.,1.2,,0.0,,0.0
1979-07-14 03:03:00.330 ,4,0,20.,1.2,0.,1.2,0.,1.2,,0.0,,0.0
1979-07-14 03:03:01.530 ,4,0,18.,1.2,1.,1.2,0.,1.2,,0.0,,0.0
1979-07-14 03:03:02.730 ,4,0,25.,1.2,0.,1.2,0.,1.2,,0.0,,0.0
1979-07-14 03:03:03.930 ,4,0,24.,1.2,2.,1.2,0.,1.2,,0.0,,0.0
1979-07-14 03:03:05.130 ,4,0,15.,1.2,0.,1.2,0.,1.2,,0.0,,0.0
1979-07-14 03:03:06.330 ,4,0,16.,1.2,1.,1.2,0.,1.2,,0.0,,0.0
1979-07-14 03:03:07.530 ,4,0,10.,1.2,0.,1.2,0.,1.2,,0.0,,0.0
1979-07-14 03:03:08.730 ,4,0,11.,1.2,1.,1.2,0.,1.2,,0.0,,0.0
1979-07-14 03:03:09.930 ,4,0,14.,1.2,0.,1.2,0.,1.2,,0.0,,0.0
1979-07-14 03:03:11.130 ,5,0,16.,1.2,0.,1.2,0.,1.2,,0.0,,0.0
1979-07-14 03:03:12.330 ,5,0,15.,1.2,0.,1.2,0.,1.2,,0.0,,0.0
1979-07-14 03:03:13.530 ,5,0,16.,1.2,0.,1.2,0.,1.2,,0.0,,0.0
1979-07-14 03:03:14.730 ,5,0,16.,1.2,0.,1.2,0.,1.2,,0.0,,0.0
1979-07-14 03:03:15.930 ,5,0,17.,1.2,1.,1.2,0.,1.2,,0.0,,0.0
1979-07-14 03:03:17.130 ,5,0,17.,1.2,0.,1.2,0.,1.2,,0.0,,0.0
1979-07-14 03:03:18.330 ,5,0,14.,1.2,0.,1.2,0.,1.2,,0.0,,0.0
1979-07-14 03:03:19.530 ,5,0,10.,1.2,0.,1.2,0.,1.2,,0.0,,0.0
1979-07-14 03:03:20.730 ,5,0,22.,1.2,0.,1.2,0.,1.2,,0.0,,0.0
1979-07-14 03:03:21.930 ,5,0,15.,1.2,0.,1.2,0.,1.2,,0.0,,0.0
1979-07-14 03:03:23.130 ,5,0,12.,1.2,0.,1.2,0.,1.2,,0.0,,0.0
1979-07-14 03:03:24.330 ,5,0,10.,1.2,0.,1.2,0.,1.2,,0.0,,0.0
1979-07-14 03:03:25.530 ,5,0,15.,1.2,0.,1.2,0.,1.2,,0.0,,0.0
1979-07-14 03:03:26.730 ,5,0,18.,1.2,0.,1.2,0.,1.2,,0.0,,0.0
1979-07-14 03:03:27.930 ,5,0,15.,1.2,2.,1.2,0.,1.2,,0.0,,0.0
1979-07-14 03:03:29.130 ,5,0,13.,1.2,1.,1.2,0.,1.2,,0.0,,0.0
1979-07-14 03:03:30.330 ,5,0,13.,1.2,0.,1.2,0.,1.2,,0.0,,0.0
1979-07-14 03:03:31.530 ,5,0,21.,1.2,1.,1.2,0.,1.2,,0.0,,0.0
1979-07-14 03:03:32.730 ,5,0,7.,1.2,0.,1.2,0.,1.2,,0.0,,0.0
1979-07-14 03:03:33.930 ,5,0,12.,1.2,0.,1.2,0.,1.2,,0.0,,0.0
1979-07-14 03:03:35.130 ,5,0,11.,1.2,0.,1.2,0.,1.2,,0.0,,0.0
1979-07-14 03:03:36.330 ,5,0,12.,1.2,1.,1.2,0.,1.2,,0.0,,0.0
1979-07-14 03:03:37.530 ,5,0,17.,1.2,1.,1.2,0.,1.2,,0.0,,0.0
1979-07-14 03:03:38.730 ,5,0,18.,1.2,0.,1.2,0.,1.2,,0.0,,0.0
1979-07-14 03:03:39.930 ,5,0,19.,1.2,1.,1.2,1.,1.2,,0.0,,0.0
1979-07-14 03:03:41.130 ,5,0,11.,1.2,1.,1.2,0.,1.2,,0.0,,0.0
1979-07-14 03:03:42.330 ,5,0,20.,1.2,1.,1.2,0.,1.2,,0.0,,0.0
1979-07-14 03:03:43.530 ,5,0,15.,1.2,0.,1.2,0.,1.2,,0.0,,0.0
1979-07-14 03:03:44.730 ,5,0,17.,1.2,0.,1.2,0.,1.2,,0.0,,0.0
1979-07-14 03:03:45.930 ,5,0,10.,1.2,0.,1.2,0.,1.2,,0.0,,0.0
1979-07-14 03:03:47.130 ,5,0,14.,1.2,0.,1.2,0.,1.2,,0.0,,0.0
1979-07-14 03:03:48.330 ,5,0,11.,1.2,0.,1.2,0.,1.2,,0.0,,0.0
1979-07-14 03:03:49.530 ,5,0,17.,1.2,0.,1.2,0.,1.2,,0.0,,0.0
1979-07-14 03:03:50.730 ,5,0,14.,1.2,0.,1.2,0.,1.2,,0.0,,0.0
1979-07-14 03:03:51.930 ,5,0,13.,1.2,2.,1.2,1.,1.2,,0.0,,0.0
1979-07-14 03:03:53.130 ,5,0,17.,1.2,0.,1.2,0.,1.2,,0.0,,0.0
1979-07-14 03:03:54.330 ,5,0,19.,1.2,0.,1.2,0.,1.2,,0.0,,0.0
1979-07-14 03:03:55.530 ,5,0,16.,1.2,0.,1.2,0.,1.2,,0.0,,0.0
1979-07-14 03:03:56.730 ,5,0,13.,1.2,1.,1.2,0.,1.2,,0.0,,0.0
1979-07-14 03:03:57.930 ,5,0,18.,1.2,2.,1.2,0.,1.2,,0.0,,0.0
1979-07-14 03:03:59.130 ,6,0,14.,1.2,0.,1.2,0.,1.2,,0.0,,0.0
1979-07-14 03:04:00.330 ,6,0,14.,1.2,0.,1.2,0.,1.2,,0.0,,0.0
1979-07-14 03:04:01.530 ,6,0,15.,1.2,0.,1.2,0.,1.2,,0.0,,0.0
1979-07-14 03:04:02.730 ,6,0,17.,1.2,0.,1.2,0.,1.2,,0.0,,0.0
1979-07-14 03:04:03.930 ,6,0,11.,1.2,0.,1.2,0.,1.2,,0.0,,0.0
1979-07-14 03:04:05.130 ,6,0,14.,1.2,0.,1.2,0.,1.2,,0.0,,0.0
1979-07-14 03:04:06.330 ,6,0,20.,1.2,1.,1.2,0.,1.2,,0.0,,0.0
1979-07-14 03:04:07.530 ,6,0,11.,1.2,1.,1.2,0.,1.2,,0.0,,0.0
1979-07-14 03:04:08.730 ,6,0,13.,1.2,1.,1.2,0.,1.2,,0.0,,0.0
1979-07-14 03:04:09.930 ,6,0,8.,1.2,1.,1.2,0.,1.2,,0.0,,0.0
1979-07-14 03:04:11.130 ,6,0,9.,1.2,0.,1.2,0.,1.2,,0.0,,0.0
1979-07-14 03:04:12.330 ,6,0,16.,1.2,2.,1.2,0.,1.2,,0.0,,0.0
1979-07-14 03:04:13.530 ,6,0,12.,1.2,0.,1.2,0.,1.2,,0.0,,0.0
1979-07-14 03:04:14.730 ,6,0,14.,1.2,0.,1.2,0.,1.2,,0.0,,0.0
1979-07-14 03:04:15.930 ,6,0,21.,1.2,1.,1.2,0.,1.2,,0.0,,0.0
1979-07-14 03:04:17.130 ,6,0,20.,1.2,1.,1.2,0.,1.2,,0.0,,0.0
1979-07-14 03:04:18.330 ,6,0,14.,1.2,0.,1.2,0.,1.2,,0.0,,0.0
1979-07-14 03:04:19.530 ,6,0,12.,1.2,1.,1.2,0.,1.2,,0.0,,0.0
1979-07-14 03:04:20.730 ,6,0,9.,1.2,2.,1.2,0.,1.2,,0.0,,0.0
1979-07-14 03:04:21.930 ,6,0,18.,1.2,0.,1.2,0.,1.2,,0.0,,0.0
1979-07-14 03:04:23.130 ,6,0,13.,1.2,1.,1.2,0.,1.2,,0.0,,0.0
1979-07-14 03:04:24.330 ,6,0,16.,1.2,1.,1.2,0.,1.2,,0.0,,0.0
1979-07-14 03:04:25.530 ,6,0,14.,1.2,0.,1.2,0.,1.2,,0.0,,0.0
1979-07-14 03:04:26.730 ,6,0,16.,1.2,1.,1.2,0.,1.2,,0.0,,0.0
1979-07-14 03:04:27.930 ,6,0,12.,1.2,0.,1.2,0.,1.2,,0.0,,0.0
1979-07-14 03:04:29.130 ,6,0,15.,1.2,0.,1.2,0.,1.2,,0.0,,0.0
1979-07-14 03:04:30.330 ,6,0,12.,1.2,1.,1.2,0.,1.2,,0.0,,0.0
1979-07-14 03:04:31.530 ,6,0,12.,1.2,0.,1.2,0.,1.2,,0.0,,0.0
1979-07-14 03:04:32.730 ,6,0,22.,1.2,1.,1.2,0.,1.2,,0.0,,0.0
1979-07-14 03:04:33.930 ,6,0,30.,1.2,2.,1.2,0.,1.2,,0.0,,0.0
1979-07-14 03:04:35.130 ,6,0,19.,1.2,1.,1.2,0.,1.2,,0.0,,0.0
1979-07-14 03:04:36.330 ,6,0,10.,1.2,0.,1.2,0.,1.2,,0.0,,0.0
1979-07-14 03:04:37.530 ,6,0,18.,1.2,0.,1.2,0.,1.2,,0.0,,0.0
1979-07-14 03:04:38.730 ,6,0,9.,1.2,2.,1.2,1.,1.2,,0.0,,0.0
1979-07-14 03:04:39.930 ,6,0,14.,1.2,0.,1.2,0.,1.2,,0.0,,0.0
1979-07-14 03:04:41.130 ,6,0,10.,1.2,1.,1.2,0.,1.2,,0.0,,0.0
1979-07-14 03:04:42.330 ,6,0,21.,1.2,0.,1.2,0.,1.2,,0.0,,0.0
1979-07-14 03:04:43.530 ,6,0,23.,1.2,1.,1.2,0.,1.2,,0.0,,0.0
1979-07-14 03:04:44.730 ,6,0,19.,1.2,1.,1.2,0.,1.2,,0.0,,0.0
1979-07-14 03:04:45.930 ,6,0,13.,1.2,0.,1.2,0.,1.2,,0.0,,0.0
1979-07-14 03:04:47.130 ,7,0,18.,1.2,0.,1.2,0.,1.2,,0.0,,0.0
1979-07-14 03:04:48.330 ,7,0,16.,1.2,0.,1.2,0.,1.2,,0.0,,0.0
1979-07-14 03:04:49.530 ,7,0,10.,1.2,0.,1.2,0.,1.2,,0.0,,0.0
1979-07-14 03:04:50.730 ,7,0,8.,1.2,0.,1.2,0.,1.2,,0.0,,0.0
1979-07-14 03:04:51.930 ,7,0,17.,1.2,0.,1.2,0.,1.2,,0.0,,0.0
1979-07-14 03:04:53.130 ,7,0,13.,1.2,1.,1.2,0.,1.2,,0.0,,0.0
1979-07-14 03:04:54.330 ,7,0,1.,1.2,0.,1.2,0.,1.2,,0.0,,0.0
1979-07-14 03:04:55.530 ,7,0,1.,1.2,0.,1.2,0.,1.2,,0.0,,0.0
1979-07-14 03:04:56.730 ,7,0,2.,1.2,0.,1.2,0.,1.2,,0.0,,0.0
1979-07-14 03:04:57.930 ,7,0,3.,1.2,0.,1.2,0.,1.2,,0.0,,0.0
1979-07-14 03:04:59.130 ,7,0,3.,1.2,2.,1.2,0.,1.2,,0.0,,0.0
1979-07-14 03:05:00.330 ,7,0,1.,1.2,1.,1.2,0.,1.2,,0.0,,0.0
1979-07-14 03:05:01.530 ,7,0,0.,1.2,0.,1.2,0.,1.2,,0.0,,0.0
1979-07-14 03:05:02.730 ,7,0,0.,1.2,0.,1.2,0.,1.2,,0.0,,0.0
1979-07-14 03:05:03.930 ,7,0,2.,1.2,0.,1.2,0.,1.2,,0.0,,0.0
1979-07-14 03:05:05.130 ,7,0,0.,1.2,0.,1.2,0.,1.2,,0.0,,0.0
1979-07-14 03:05:06.330 ,7,0,3.,1.2,1.,1.2,0.,1.2,,0.0,,0.0
1979-07-14 03:05:07.530 ,7,0,1.,1.2,0.,1.2,0.,1.2,,0.0,,0.0
1979-07-14 03:05:08.730 ,7,0,0.,1.2,0.,1.2,0.,1.2,,0.0,,0.0
1979-07-14 03:05:09.930 ,7,0,0.,1.2,0.,1.2,0.,1.2,,0.0,,0.0
1979-07-14 03:05:11.130 ,7,0,1.,1.2,0.,1.2,0.,1.2,,0.0,,0.0
1979-07-14 03:05:12.330 ,7,0,0.,1.2,0.,1.2,0.,1.2,,0.0,,0.0
1979-07-14 03:05:13.530 ,7,0,0.,1.2,0.,1.2,0.,1.2,,0.0,,0.0
1979-07-14 03:05:14.730 ,7,0,2.,1.2,0.,1.2,0.,1.2,,0.0,,0.0
1979-07-14 03:05:15.930 ,7,0,1.,1.2,0.,1.2,0.,1.2,,0.0,,0.0
1979-07-14 03:05:17.130 ,7,0,1.,1.2,1.,1.2,0.,1.2,,0.0,,0.0
1979-07-14 03:05:18.330 ,7,0,0.,1.2,0.,1.2,0.,1.2,,0.0,,0.0
1979-07-14 03:05:19.530 ,7,0,1.,1.2,1.,1.2,0.,1.2,,0.0,,0.0
1979-07-14 03:05:20.730 ,7,0,1.,1.2,0.,1.2,0.,1.2,,0.0,,0.0
1979-07-14 03:05:21.930 ,7,0,0.,1.2,0.,1.2,0.,1.2,,0.0,,0.0
1979-07-14 03:05:23.130 ,7,0,1.,1.2,0.,1.2,0.,1.2,,0.0,,0.0
1979-07-14 03:05:24.330 ,7,0,0.,1.2,0.,1.2,0.,1.2,,0.0,,0.0
1979-07-14 03:05:25.530 ,7,0,1.,1.2,0.,1.2,0.,1.2,,0.0,,0.0
1979-07-14 03:05:26.730 ,7,0,0.,1.2,0.,1.2,0.,1.2,,0.0,,0.0
1979-07-14 03:05:27.930 ,7,0,1.,1.2,0.,1.2,0.,1.2,,0.0,,0.0
1979-07-14 03:05:29.130 ,7,0,1.,1.2,1.,1.2,0.,1.2,,0.0,,0.0
1979-07-14 03:05:30.330 ,7,0,0.,1.2,0.,1.2,0.,1.2,,0.0,,0.0
1979-07-14 03:05:31.530 ,7,0,1.,1.2,0.,1.2,0.,1.2,,0.0,,0.0
1979-07-14 03:05:32.730 ,7,0,2.,1.2,0.,1.2,0.,1.2,,0.0,,0.0
1979-07-14 03:05:33.930 ,7,0,2.,1.2,0.,1.2,0.,1.2,,0.0,,0.0
1979-07-14 03:05:35.130 ,7,0,0.,1.2,0.,1.2,0.,1.2,,0.0,,0.0
1979-07-14 03:05:36.330 ,7,0,2.,1.2,0.,1.2,0.,1.2,,0.0,,0.0
1979-07-14 03:05:37.530 ,7,0,2.,1.2,2.,1.2,1.,1.2,,0.0,,0.0
1979-07-14 03:05:38.730 ,7,0,0.,1.2,0.,1.2,0.,1.2,,0.0,,0.0
1979-07-14 03:05:39.930 ,7,0,0.,1.2,0.,1.2,0.,1.2,,0.0,,0.0
1979-07-14 03:05:41.130 ,7,0,2.,1.2,1.,1.2,1.,1.2,,0.0,,0.0
1979-07-14 03:05:42.330 ,7,0,1.,1.2,0.,1.2,0.,1.2,,0.0,,0.0
1979-07-14 03:05:43.530 ,7,0,3.,1.2,1.,1.2,1.,1.2,,0.0,,0.0
1979-07-14 03:05:44.730 ,7,0,2.,1.2,0.,1.2,0.,1.2,,0.0,,0.0
1979-07-14 03:05:45.930 ,7,0,0.,1.2,0.,1.2,0.,1.2,,0.0,,0.0
1979-07-14 03:05:47.130 ,7,0,1.,1.2,0.,1.2,0.,1.2,,0.0,,0.0
1979-07-14 03:05:48.330 ,7,0,1.,1.2,0.,1.2,0.,1.2,,0.0,,0.0
1979-07-14 03:05:49.530 ,7,0,1.,1.2,0.,1.2,0.,1.2,,0.0,,0.0
1979-07-14 03:05:50.730 ,7,0,0.,1.2,0.,1.2,0.,1.2,,0.0,,0.0
1979-07-14 03:05:51.930 ,7,0,1.,1.2,1.,1.2,0.,1.2,,0.0,,0.0
1979-07-14 03:05:53.130 ,7,0,2.,1.2,0.,1.2,0.,1.2,,0.0,,0.0
1979-07-14 03:05:54.330 ,7,0,3.,1.2,1.,1.2,1.,1.2,,0.0,,0.0
1979-07-14 03:05:55.530 ,7,0,2.,1.2,0.,1.2,0.,1.2,,0.0,,0.0
1979-07-14 03:05:56.730 ,7,0,1.,1.2,0.,1.2,0.,1.2,,0.0,,0.0
1979-07-14 03:05:57.930 ,7,0,2.,1.2,0.,1.2,0.,1.2,,0.0,,0.0
1979-07-14 03:05:59.130 ,7,0,2.,1.2,0.,1.2,0.,1.2,,0.0,,0.0
1979-07-14 03:06:00.330 ,7,0,0.,1.2,0.,1.2,0.,1.2,,0.0,,0.0
1979-07-14 03:06:01.530 ,7,0,1.,1.2,0.,1.2,0.,1.2,,0.0,,0.0
1979-07-14 03:06:02.730 ,7,0,0.,1.2,0.,1.2,0.,1.2,,0.0,,0.0
1979-07-14 03:06:03.930 ,7,0,0.,1.2,0.,1.2,0.,1.2,,0.0,,0.0
1979-07-14 03:06:05.130 ,7,0,2.,1.2,0.,1.2,0.,1.2,,0.0,,0.0
1979-07-14 03:06:06.330 ,7,0,0.,1.2,0.,1.2,0.,1.2,,0.0,,0.0
1979-07-14 03:06:07.530 ,7,0,0.,1.2,0.,1.2,0.,1.2,,0.0,,0.0
1979-07-14 03:06:08.730 ,7,0,2.,1.2,1.,1.2,0.,1.2,,0.0,,0.0
1979-07-14 03:06:09.930 ,7,0,2.,1.2,0.,1.2,0.,1.2,,0.0,,0.0
1979-07-14 03:06:11.130 ,7,0,2.,1.2,0.,1.2,0.,1.2,,0.0,,0.0
1979-07-14 03:06:12.330 ,7,0,5.,1.2,2.,1.2,0.,1.2,,0.0,,0.0
1979-07-14 03:06:13.530 ,7,0,2.,1.2,0.,1.2,0.,1.2,,0.0,,0.0
1979-07-14 03:06:14.730 ,7,0,3.,1.2,0.,1.2,0.,1.2,,0.0,,0.0
1979-07-14 03:06:15.930 ,7,0,0.,1.2,0.,1.2,0.,1.2,,0.0,,0.0
1979-07-14 03:06:17.130 ,7,0,0.,1.2,0.,1.2,0.,1.2,,0.0,,0.0
1979-07-14 03:06:18.330 ,7,0,0.,1.2,0.,1.2,0.,1.2,,0.0,,0.0
1979-07-14 03:06:19.530 ,7,0,0.,1.2,0.,1.2,0.,1.2,,0.0,,0.0
1979-07-14 03:06:20.730 ,7,0,0.,1.2,0.,1.2,0.,1.2,,0.0,,0.0
1979-07-14 03:06:21.930 ,7,0,4.,1.2,0.,1.2,0.,1.2,,0.0,,0.0
1979-07-14 03:06:23.130 ,6,0,0.,1.2,0.,1.2,0.,1.2,,0.0,,0.0
1979-07-14 03:06:24.330 ,6,0,2.,1.2,0.,1.2,0.,1.2,,0.0,,0.0
1979-07-14 03:06:25.530 ,6,0,0.,1.2,0.,1.2,0.,1.2,,0.0,,0.0
1979-07-14 03:06:26.730 ,6,0,1.,1.2,0.,1.2,0.,1.2,,0.0,,0.0
1979-07-14 03:06:27.930 ,6,0,0.,1.2,0.,1.2,0.,1.2,,0.0,,0.0
1979-07-14 03:06:29.130 ,6,0,2.,1.2,0.,1.2,0.,1.2,,0.0,,0.0
1979-07-14 03:06:30.330 ,6,0,6.,1.2,0.,1.2,0.,1.2,,0.0,,0.0
1979-07-14 03:06:31.530 ,6,0,15.,1.2,0.,1.2,0.,1.2,,0.0,,0.0
1979-07-14 03:06:32.730 ,6,0,14.,1.2,0.,1.2,0.,1.2,,0.0,,0.0
1979-07-14 03:06:33.930 ,6,0,10.,1.2,1.,1.2,0.,1.2,,0.0,,0.0
1979-07-14 03:06:35.130 ,6,0,17.,1.2,0.,1.2,0.,1.2,,0.0,,0.0
1979-07-14 03:06:36.330 ,6,0,17.,1.2,0.,1.2,0.,1.2,,0.0,,0.0
1979-07-14 03:06:37.530 ,6,0,14.,1.2,0.,1.2,0.,1.2,,0.0,,0.0
1979-07-14 03:06:38.730 ,6,0,17.,1.2,0.,1.2,0.,1.2,,0.0,,0.0
1979-07-14 03:06:39.930 ,6,0,22.,1.2,1.,1.2,1.,1.2,,0.0,,0.0
1979-07-14 03:06:41.130 ,6,0,16.,1.2,1.,1.2,0.,1.2,,0.0,,0.0
1979-07-14 03:06:42.330 ,6,0,15.,1.2,0.,1.2,0.,1.2,,0.0,,0.0
1979-07-14 03:06:43.530 ,6,0,15.,1.2,0.,1.2,0.,1.2,,0.0,,0.0
1979-07-14 03:06:44.730 ,6,0,24.,1.2,1.,1.2,0.,1.2,,0.0,,0.0
1979-07-14 03:06:45.930 ,6,0,15.,1.2,0.,1.2,0.,1.2,,0.0,,0.0
1979-07-14 03:06:47.130 ,6,0,17.,1.2,0.,1.2,0.,1.2,,0.0,,0.0
1979-07-14 03:06:48.330 ,6,0,24.,1.2,1.,1.2,0.,1.2,,0.0,,0.0
1979-07-14 03:06:49.530 ,6,0,16.,1.2,0.,1.2,0.,1.2,,0.0,,0.0
1979-07-14 03:06:50.730 ,6,0,20.,1.2,1.,1.2,0.,1.2,,0.0,,0.0
1979-07-14 03:06:51.930 ,6,0,11.,1.2,1.,1.2,0.,1.2,,0.0,,0.0
1979-07-14 03:06:53.130 ,6,0,16.,1.2,0.,1.2,0.,1.2,,0.0,,0.0
1979-07-14 03:06:54.330 ,6,0,16.,1.2,1.,1.2,0.,1.2,,0.0,,0.0
1979-07-14 03:06:55.530 ,6,0,15.,1.2,1.,1.2,0.,1.2,,0.0,,0.0
1979-07-14 03:06:56.730 ,6,0,16.,1.2,1.,1.2,0.,1.2,,0.0,,0.0
1979-07-14 03:06:57.930 ,6,0,19.,1.2,1.,1.2,0.,1.2,,0.0,,0.0
1979-07-14 03:06:59.130 ,6,0,18.,1.2,0.,1.2,0.,1.2,,0.0,,0.0
1979-07-14 03:07:00.330 ,6,0,15.,1.2,0.,1.2,0.,1.2,,0.0,,0.0
1979-07-14 03:07:01.530 ,6,0,18.,1.2,0.,1.2,0.,1.2,,0.0,,0.0
1979-07-14 03:07:02.730 ,6,0,15.,1.2,1.,1.2,0.,1.2,,0.0,,0.0
1979-07-14 03:07:03.930 ,6,0,7.,1.2,0.,1.2,0.,1.2,,0.0,,0.0
1979-07-14 03:07:05.130 ,6,0,15.,1.2,0.,1.2,0.,1.2,,0.0,,0.0
1979-07-14 03:07:06.330 ,6,0,17.,1.2,1.,1.2,0.,1.2,,0.0,,0.0
1979-07-14 03:07:07.530 ,6,0,17.,1.2,1.,1.2,1.,1.2,,0.0,,0.0
1979-07-14 03:07:08.730 ,6,0,19.,1.2,1.,1.2,0.,1.2,,0.0,,0.0
1979-07-14 03:07:09.930 ,6,0,9.,1.2,0.,1.2,0.,1.2,,0.0,,0.0
1979-07-14 03:07:11.130 ,5,0,15.,1.2,0.,1.2,0.,1.2,,0.0,,0.0
1979-07-14 03:07:12.330 ,5,0,11.,1.2,0.,1.2,0.,1.2,,0.0,,0.0
1979-07-14 03:07:13.530 ,5,0,16.,1.2,2.,1.2,1.,1.2,,0.0,,0.0
1979-07-14 03:07:14.730 ,5,0,14.,1.2,1.,1.2,0.,1.2,,0.0,,0.0
1979-07-14 03:07:15.930 ,5,0,15.,1.2,1.,1.2,0.,1.2,,0.0,,0.0
1979-07-14 03:07:17.130 ,5,0,8.,1.2,0.,1.2,0.,1.2,,0.0,,0.0
1979-07-14 03:07:18.330 ,5,0,14.,1.2,2.,1.2,0.,1.2,,0.0,,0.0
1979-07-14 03:07:19.530 ,5,0,22.,1.2,1.,1.2,0.,1.2,,0.0,,0.0
1979-07-14 03:07:20.730 ,5,0,12.,1.2,1.,1.2,0.,1.2,,0.0,,0.0
1979-07-14 03:07:21.930 ,5,0,14.,1.2,1.,1.2,0.,1.2,,0.0,,0.0
1979-07-14 03:07:23.130 ,5,0,10.,1.2,0.,1.2,0.,1.2,,0.0,,0.0
1979-07-14 03:07:24.330 ,5,0,11.,1.2,0.,1.2,0.,1.2,,0.0,,0.0
1979-07-14 03:07:25.530 ,5,0,15.,1.2,0.,1.2,0.,1.2,,0.0,,0.0
1979-07-14 03:07:26.730 ,5,0,12.,1.2,0.,1.2,0.,1.2,,0.0,,0.0
1979-07-14 03:07:27.930 ,5,0,14.,1.2,0.,1.2,0.,1.2,,0.0,,0.0
1979-07-14 03:07:29.130 ,5,0,17.,1.2,0.,1.2,0.,1.2,,0.0,,0.0
1979-07-14 03:07:30.330 ,5,0,13.,1.2,0.,1.2,0.,1.2,,0.0,,0.0
1979-07-14 03:07:31.530 ,5,0,14.,1.2,0.,1.2,0.,1.2,,0.0,,0.0
1979-07-14 03:07:32.730 ,5,0,19.,1.2,0.,1.2,0.,1.2,,0.0,,0.0
1979-07-14 03:07:33.930 ,5,0,7.,1.2,0.,1.2,0.,1.2,,0.0,,0.0
1979-07-14 03:07:35.130 ,5,0,14.,1.2,0.,1.2,0.,1.2,,0.0,,0.0
1979-07-14 03:07:36.330 ,5,0,11.,1.2,0.,1.2,0.,1.2,,0.0,,0.0
1979-07-14 03:07:37.530 ,5,0,15.,1.2,1.,1.2,0.,1.2,,0.0,,0.0
1979-07-14 03:07:38.730 ,5,0,19.,1.2,1.,1.2,0.,1.2,,0.0,,0.0
1979-07-14 03:07:39.930 ,5,0,13.,1.2,0.,1.2,0.,1.2,,0.0,,0.0
1979-07-14 03:07:41.130 ,5,0,6.,1.2,0.,1.2,0.,1.2,,0.0,,0.0
1979-07-14 03:07:42.330 ,5,0,21.,1.2,0.,1.2,0.,1.2,,0.0,,0.0
1979-07-14 03:07:43.530 ,5,0,11.,1.2,0.,1.2,0.,1.2,,0.0,,0.0
1979-07-14 03:07:44.730 ,5,0,12.,1.2,2.,1.2,0.,1.2,,0.0,,0.0
1979-07-14 03:07:45.930 ,5,0,9.,1.2,0.,1.2,0.,1.2,,0.0,,0.0
1979-07-14 03:07:47.130 ,5,0,9.,1.2,0.,1.2,0.,1.2,,0.0,,0.0
1979-07-14 03:07:48.330 ,5,0,12.,1.2,0.,1.2,0.,1.2,,0.0,,0.0
1979-07-14 03:07:49.530 ,5,0,13.,1.2,1.,1.2,0.,1.2,,0.0,,0.0
1979-07-14 03:07:50.730 ,5,0,9.,1.2,0.,1.2,0.,1.2,,0.0,,0.0
1979-07-14 03:07:51.930 ,5,0,8.,1.2,0.,1.2,0.,1.2,,0.0,,0.0
1979-07-14 03:07:53.130 ,5,0,10.,1.2,1.,1.2,0.,1.2,,0.0,,0.0
1979-07-14 03:07:54.330 ,5,0,9.,1.2,0.,1.2,0.,1.2,,0.0,,0.0
1979-07-14 03:07:55.530 ,5,0,16.,1.2,0.,1.2,0.,1.2,,0.0,,0.0
1979-07-14 03:07:56.730 ,5,0,11.,1.2,0.,1.2,0.,1.2,,0.0,,0.0
1979-07-14 03:07:57.930 ,5,0,16.,1.2,0.,1.2,0.,1.2,,0.0,,0.0
1979-07-14 03:07:59.130 ,4,0,11.,1.2,1.,1.2,0.,1.2,,0.0,,0.0
1979-07-14 03:08:00.330 ,4,0,10.,1.2,0.,1.2,0.,1.2,,0.0,,0.0
1979-07-14 03:08:01.530 ,4,0,6.,1.2,0.,1.2,0.,1.2,,0.0,,0.0
1979-07-14 03:08:02.730 ,4,0,23.,1.2,1.,1.2,0.,1.2,,0.0,,0.0
1979-07-14 03:08:03.930 ,4,0,11.,1.2,0.,1.2,0.,1.2,,0.0,,0.0
1979-07-14 03:08:05.130 ,4,0,14.,1.2,1.,1.2,0.,1.2,,0.0,,0.0
1979-07-14 03:08:06.330 ,4,0,10.,1.2,1.,1.2,0.,1.2,,0.0,,0.0